Location: L�Ave Maria
(50.7161°N, 1.5911°E)
Time: 12:19:31
(UTC+00:00)

SPOT 5 - Pass Details

Date: 10 July 2020
Orbit: 622 x 816 km, 98.3° (Epoch: 07 August)

Event Time Altitude Azimuth Distance (km) Brightness Sun altitude
Exits shadow 21:57:56 11° 187° (S) 2,137 4.8 -12.4°
Maximum altitude 22:02:24 47° 260° (W) 938 3.6 -12.8°
Drops below altitude 10° 22:06:54 10° 335° (NNW) 2,133 6.8 -13.1°
Sets 22:09:10 0° 341° (NNW) 3,024 8.0 -13.3°
